Location: Chiroubles
(46.1812°N, 4.6660°E)
Time: 03:22:26
(UTC+00:00)

Tiros 1 - Pass Details

Date: 05 December 2020
Orbit: 630 x 663 km, 48.4° (Epoch: 16 January)

Event Time Altitude Azimuth Distance (km) Brightness Sun altitude
Rises 19:28:21 0° 282° (WNW) 2,986 11.6 -35.9°
Reaches altitude 10° 19:31:41 10° 258° (WSW) 2,064 10.4 -36.5°
Enters shadow 19:33:23 14° 238° (WSW) 1,813 9.9 -36.8°
